Bremerton, WA

3:58 AM PDT on October 15, 2019 (GMT -0700)
Bremerton National

Weather History for KPWT - August, 2019

Change the Weather History Date:

Saturday, August 3, 2019

  Actual Average Record
Temperature  
Mean Temperature 67 °F -  
Max Temperature 80 °F 74 °F 91 °F (2017)
Min Temperature 55 °F 50 °F 42 °F (2008)
Cooling Degree Days 2    
Growing Degree Days 17 (Base 50)    
Moisture  
Dew Point 53 °F    
Average Humidity 64    
Maximum Humidity 93    
Minimum Humidity 34    
Precipitation  
Precipitation 0.00 in - - ()
Sea Level Pressure  
Sea Level Pressure 30.16 in    
Wind  
Wind Speed 5 mph (NE)    
Max Wind Speed 14 mph    
Max Gust Speed 18 mph    
Visibility 10 miles    
Events      
Averages and records for this station are not official NWS values.
T = Trace of Precipitation, MM = Missing Value Source: NWS Daily Summary

Daily Weather History Graph

Daily Weather History Graph

Search for Another Location

Airport or City:

Astronomy

Aug. 03, 2019 Rise Set
Actual Time 5:51 AM PDT 8:42 PM PDT
Civil Twilight 5:15 AM PDT 9:17 PM PDT
Nautical Twilight 4:30 AM PDT 10:03 PM PDT
Astronomical Twilight 3:35 AM PDT 10:57 PM PDT
Moon 9:00 AM PDT (8/3) 10:37 PM PDT (8/3)
Length of Visible Light 16h 02m
Length of Day
14h 51m
Waxing Crescent, 10% of the Moon is Illuminated
Aug 3
Waxing Crescent
Aug 7
First Quarter
Aug 15
Full
Aug 23
Last Quarter
Aug 30
New

Hourly Weather History & Observations

Time (PDT) Temp. Dew Point Humidity Pressure Visibility Wind Dir Wind Speed Gust Speed Precip Events Conditions
12:56 AM 59.0 °F 55.9 °F 90% 30.20 in 10.0 mi Calm Calm - N/A   Clear
1:56 AM 57.0 °F 55.0 °F 93% 30.20 in 10.0 mi Calm Calm - N/A   Clear
2:56 AM 59.0 °F 55.9 °F 90% 30.20 in 10.0 mi Calm Calm - N/A   Partly Cloudy
3:56 AM 59.0 °F 54.0 °F 83% 30.20 in 10.0 mi NE 6.9 mph - N/A   Scattered Clouds
4:56 AM 57.0 °F 54.0 °F 89% - 10.0 mi NE 4.6 mph - N/A   Partly Cloudy
5:56 AM 55.9 °F 53.1 °F 90% 30.21 in 10.0 mi NE 5.8 mph - N/A   Clear
6:56 AM 55.9 °F 53.1 °F 90% 30.22 in 10.0 mi East 3.5 mph - N/A   Clear
7:56 AM 60.1 °F 54.0 °F 80% 30.22 in 10.0 mi NE 4.6 mph - N/A   Clear
8:56 AM 63.0 °F 55.0 °F 75% 30.22 in 10.0 mi NE 6.9 mph - N/A   Clear
9:56 AM 66.0 °F 55.9 °F 70% 30.21 in 10.0 mi NE 6.9 mph - N/A   Clear
10:56 AM 71.1 °F 57.0 °F 61% 30.20 in 10.0 mi ENE 9.2 mph - N/A   Clear
11:56 AM 73.9 °F 57.0 °F 55% 30.18 in 10.0 mi NE 11.5 mph - N/A   Clear
12:56 PM 75.9 °F 57.0 °F 52% 30.17 in 10.0 mi ENE 9.2 mph - N/A   Clear
1:56 PM 77.0 °F 55.0 °F 47% 30.15 in 10.0 mi NNE 12.7 mph 18.4 mph N/A   Clear
2:56 PM 79.0 °F 53.1 °F 40% 30.14 in 10.0 mi NNE 12.7 mph 18.4 mph N/A   Clear
3:56 PM 79.0 °F 51.1 °F 38% 30.12 in 10.0 mi NNE 10.4 mph 17.3 mph N/A   Clear
4:56 PM 79.0 °F 51.1 °F 38% 30.11 in 10.0 mi NNE 11.5 mph - N/A   Clear
5:56 PM 78.1 °F 50.0 °F 37% 30.10 in 10.0 mi NE 13.8 mph - N/A   Clear
6:56 PM 77.0 °F 46.9 °F 34% 30.09 in 10.0 mi NNE 12.7 mph - N/A   Clear
7:56 PM 73.0 °F 46.9 °F 39% 30.09 in 10.0 mi NNE 13.8 mph - N/A   Clear
8:56 PM 69.1 °F 48.9 °F 49% 30.09 in 10.0 mi NE 11.5 mph - N/A   Clear
9:56 PM 66.9 °F 48.9 °F 52% 30.09 in 10.0 mi NNE 8.1 mph - N/A   Clear
10:56 PM 62.1 °F 48.0 °F 60% 30.09 in 10.0 mi Calm Calm - N/A   Clear
11:56 PM 55.0 °F 48.9 °F 80% 30.09 in 10.0 mi Calm Calm - N/A   Clear